Precipitable_Water
0.33 0.33 0.38 0.49 0.64 0.70 0.77 0.78 0.80 0.91 1.01 0.99 0.88 0.84 0.98 1.16 1.24 1.27 1.29 1.32 1.32 1.18 1.39 1.43 1.53 1.55 1.51 1.52 1.51 1.57 1.54 1.67 1.80 1.65 1.69 1.63 1.56 1.59 1.62 1.81 1.72 1.56 1.61 1.85
0.22 0.21 0.41 0.58 0.62 0.61 0.76 0.71 0.71 0.83 0.89 0.92 0.92 0.87 0.96 1.09 1.13 1.28 1.35 1.36 1.27 1.28 1.21 1.24 1.41 1.49 1.49 1.46 1.49 1.54 1.58 1.61 1.73 1.65 1.66 1.72 1.65 1.66 1.68 1.74 1.84 1.67 1.63 1.72
0.18 0.20 0.29 0.36 0.39 0.43 0.66 0.63 0.67 0.69 0.84 0.93 0.88 0.80 0.89 1.06 1.13 1.22 1.41 1.46 1.48 1.38 1.23 1.19 1.22 1.39 1.46 1.39 1.46 1.51 1.57 1.60 1.62 1.63 1.73 1.74 1.71 1.63 1.57 1.56 1.64 1.57 1.62 1.82
0.23 0.25 0.27 0.28 0.33 0.38 0.55 0.75 0.77 0.77 0.68 0.58 0.91 0.55 0.77 0.96 0.98 1.08 1.25 1.36 1.40 1.49 1.50 1.34 1.25 1.23 1.28 1.35 1.48 1.55 1.60 1.59 1.63 1.60 1.68 1.64 1.58 1.54 1.51 1.60 1.57 1.53 1.61 1.63
0.27 0.26 0.25 0.25 0.29 0.39 0.44 0.77 0.65 0.67 0.57 0.66 0.74 0.65 0.67 0.90 0.88 0.98 1.08 1.25 1.39 1.55 1.63 1.53 1.43 1.39 1.25 1.35 1.43 1.56 1.59 1.59 1.62 1.63 1.72 1.75 1.67 1.72 1.62 1.53 1.54 1.49 1.60 1.68
0.30 0.33 0.30 0.28 0.29 0.35 0.49 0.62 0.61 0.75 0.67 0.45 0.58 0.62 0.60 0.78 0.90 1.07 1.08 1.16 1.31 1.50 1.58 1.62 1.57 1.45 1.24 1.32 1.51 1.52 1.55 1.53 1.62 1.64 1.70 1.71 1.71 1.60 1.57 1.51 1.53 1.53 1.55 1.58
0.32 0.32 0.36 0.36 0.29 0.29 0.35 0.38 0.30 0.35 0.40 0.30 0.56 0.54 0.60 0.92 1.10 1.18 1.17 1.08 1.23 1.44 1.53 1.61 1.56 1.58 1.46 1.29 1.35 1.53 1.53 1.40 1.53 1.51 1.61 1.68 1.74 1.61 1.47 1.61 1.59 1.57 1.57 1.62
0.27 0.26 0.33 0.37 0.32 0.27 0.30 0.32 0.27 0.23 0.23 0.29 0.48 0.44 0.58 0.92 1.13 1.32 1.42 1.17 1.22 1.34 1.51 1.55 1.57 1.67 1.56 1.52 1.40 1.50 1.54 1.46 1.52 1.50 1.52 1.66 1.68 1.64 1.71 1.67 1.67 1.69 1.61 1.67
0.29 0.29 0.35 0.36 0.35 0.31 0.28 0.25 0.30 0.25 0.30 0.28 0.45 0.62 0.83 0.96 1.00 1.17 1.23 1.35 1.27 1.26 1.38 1.50 1.57 1.65 1.62 1.71 1.66 1.66 1.57 1.52 1.52 1.48 1.43 1.53 1.63 1.65 1.71 1.81 1.78 1.81 1.65 1.76
0.36 0.28 0.34 0.40 0.36 0.34 0.25 0.30 0.24 0.28 0.27 0.29 0.43 0.48 0.54 0.68 0.81 1.06 1.20 1.31 1.35 1.39 1.43 1.49 1.57 1.64 1.70 1.79 1.84 1.79 1.64 1.56 1.55 1.48 1.44 1.41 1.41 1.64 1.75 1.91 1.81 1.65 1.66 1.76
0.46 0.32 0.34 0.44 0.42 0.32 0.31 0.34 0.37 0.40 0.43 0.34 0.34 0.43 0.68 0.68 0.79 0.96 1.14 1.32 1.37 1.39 1.49 1.46 1.55 1.70 1.76 1.80 1.88 1.76 1.66 1.64 1.59 1.56 1.53 1.50 1.39 1.54 1.67 1.76 1.74 1.71 1.67 1.70
0.49 0.41 0.35 0.42 0.61 0.62 0.55 0.46 0.47 0.39 0.40 0.49 0.46 0.43 0.71 0.74 0.83 0.96 1.07 1.28 1.44 1.44 1.51 1.54 1.59 1.70 1.68 1.72 1.81 1.86 1.89 1.86 1.76 1.72 1.62 1.65 1.53 1.47 1.53 1.60 1.68 1.71 1.71 1.80
0.45 0.39 0.31 0.32 0.51 0.59 0.54 0.55 0.53 0.53 0.54 0.40 0.35 0.40 0.73 0.76 0.85 1.10 1.13 1.28 1.46 1.50 1.50 1.61 1.74 1.70 1.77 1.81 1.82 1.83 1.93 1.88 2.00 1.85 1.78 1.64 1.59 1.53 1.52 1.53 1.54 1.64 1.67 1.70
0.49 0.45 0.39 0.32 0.42 0.52 0.49 0.54 0.55 0.49 0.40 0.41 0.43 0.47 0.61 0.73 0.84 1.02 1.12 1.35 1.41 1.51 1.54 1.56 1.63 1.70 1.81 1.81 1.79 1.81 1.89 1.97 2.05 2.00 1.94 1.79 1.75 1.69 1.71 1.77 1.79 1.74 1.64 1.64
0.48 0.42 0.46 0.48 0.51 0.54 0.52 0.51 0.50 0.47 0.50 0.42 0.49 0.49 0.59 0.71 0.84 1.01 1.12 1.26 1.38 1.52 1.63 1.66 1.67 1.75 1.81 1.81 1.78 1.85 1.87 1.87 1.83 1.94 2.01 1.92 1.86 1.84 1.81 1.78 1.81 1.86 1.86 1.82
0.51 0.44 0.47 0.39 0.47 0.48 0.43 0.47 0.51 0.54 0.56 0.54 0.59 0.54 0.70 0.81 0.93 0.97 1.06 1.22 1.29 1.40 1.50 1.62 1.65 1.67 1.70 1.75 1.76 1.83 1.82 1.82 1.76 1.74 1.87 2.15 1.96 1.95 1.89 1.97 1.89 1.89 1.91 2.05
0.36 0.44 0.34 0.29 0.46 0.44 0.30 0.43 0.50 0.57 0.69 0.68 0.56 0.64 0.81 0.77 0.88 0.95 1.06 1.24 1.31 1.37 1.45 1.51 1.57 1.58 1.69 1.82 1.84 1.77 1.81 1.85 1.84 1.80 1.79 1.95 2.02 1.88 1.87 1.94 1.97 1.99 2.03 2.16
0.29 0.32 0.37 0.33 0.41 0.26 0.41 0.60 0.65 0.62 0.75 0.77 0.71 0.72 0.78 0.81 0.93 1.07 1.20 1.20 1.29 1.39 1.47 1.49 1.54 1.55 1.70 1.81 1.87 1.90 1.90 1.88 1.96 1.93 1.87 1.81 1.89 1.86 1.93 1.87 1.91 1.91 2.00 2.03
0.41 0.36 0.35 0.35 0.38 0.44 0.56 0.61 0.62 0.63 0.64 0.80 0.77 0.80 0.77 0.94 1.00 1.09 1.27 1.28 1.26 1.28 1.36 1.47 1.68 1.62 1.73 1.77 1.84 1.88 1.98 1.96 1.90 1.86 1.90 1.92 1.95 1.91 1.90 1.77 1.88 1.90 1.89 1.97
0.46 0.45 0.39 0.41 0.34 0.33 0.57 0.72 0.84 0.80 0.56 0.82 0.81 0.85 0.93 1.03 0.84 1.04 1.38 1.39 1.43 1.50 1.55 1.60 1.65 1.63 1.61 1.64 1.77 1.73 1.63 1.65 1.73 1.82 1.87 1.97 2.03 1.98 1.91 1.88 1.87 1.94 1.98 1.98
0.38 0.40 0.34 0.37 0.36 0.45 0.63 0.78 0.85 0.56 0.54 0.78 0.83 0.89 0.93 0.95 1.07 1.27 1.45 1.43 1.50 1.56 1.62 1.65 1.60 1.57 1.56 1.62 1.63 1.56 1.55 1.51 1.61 1.67 1.73 1.85 1.87 1.84 1.86 1.89 1.87 1.79 1.80 1.85
0.35 0.32 0.29 0.37 0.35 0.35 0.80 0.87 0.63 0.68 0.69 0.77 0.83 0.89 0.93 1.05 1.18 1.26 1.35 1.35 1.38 1.37 1.41 1.47 1.42 1.36 1.43 1.49 1.47 1.46 1.43 1.55 1.57 1.55 1.57 1.56 1.60 1.65 1.72 1.71 1.73 1.75 1.74 1.67
0.33 0.39 0.37 0.39 0.40 0.64 0.73 0.68 0.74 0.64 0.59 0.71 0.77 0.96 0.97 1.02 1.03 1.09 1.22 1.28 1.22 1.21 1.26 1.33 1.29 1.30 1.37 1.43 1.44 1.34 1.36 1.45 1.46 1.49 1.46 1.49 1.54 1.53 1.51 1.56 1.55 1.59 1.60 1.53
0.47 0.56 0.48 0.49 0.59 0.65 0.71 0.75 0.72 0.72 0.75 0.73 0.82 0.99 0.96 0.94 1.07 1.11 1.15 1.12 1.09 1.15 1.19 1.21 1.21 1.17 1.19 1.30 1.33 1.36 1.41 1.44 1.39 1.33 1.38 1.45 1.45 1.44 1.44 1.41 1.34 1.36 1.44 1.45
0.48 0.54 0.49 0.56 0.66 0.70 0.69 0.65 0.63 0.72 0.84 0.75 0.79 0.89 0.88 0.93 0.90 0.87 0.89 0.93 0.96 0.95 0.98 1.04 1.03 1.03 1.05 1.16 1.23 1.33 1.35 1.38 1.33 1.35 1.37 1.39 1.34 1.29 1.30 1.28 1.26 1.22 1.25 1.20
0.55 0.46 0.45 0.43 0.61 0.53 0.55 0.63 0.66 0.60 0.77 0.81 0.81 0.87 1.00 0.97 0.93 0.86 0.78 0.81 0.79 0.81 0.84 0.82 0.87 0.93 0.97 1.03 1.07 1.15 1.22 1.26 1.24 1.26 1.28 1.28 1.27 1.24 1.19 1.17 1.12 1.12 1.10 1.09
Wind_Speed
8 6 10 11 10 8 7 5 5 2 3 3 5 3 5 9 10 10 11 9 11 11 14 17 16 14 13 13 14 13 12 12 12 11 12 11 10 10 10 7 9 9 8 6
6 10 13 11 10 7 8 7 7 5 4 4 4 6 6 6 9 11 10 12 12 11 12 15 18 17 15 14 15 14 14 13 12 12 11 10 10 9 9 9 9 8 8 6
8 9 9 12 12 11 11 10 7 6 4 7 4 7 5 6 7 12 13 13 14 15 14 14 17 19 16 15 15 15 15 14 13 12 11 10 10 9 9 9 8 8 9 7
8 10 11 10 11 11 10 11 11 8 5 5 6 6 6 7 8 10 16 16 14 16 15 17 17 18 17 16 15 14 16 15 13 14 12 11 10 9 10 9 8 8 9 8
9 7 6 8 9 6 9 11 11 10 9 6 7 6 8 6 11 12 16 18 17 16 19 19 18 19 17 18 16 16 16 16 15 14 13 13 11 9 9 10 9 8 8 8
7 7 6 6 7 9 7 10 6 7 6 8 11 10 10 9 10 11 15 20 20 19 19 20 19 18 18 18 17 16 15 15 16 15 15 14 13 12 9 10 11 9 8 8
3 7 9 8 6 8 9 7 7 7 7 10 9 7 11 12 9 12 15 19 20 21 21 22 22 19 19 19 19 18 16 15 16 17 16 15 14 12 10 11 11 10 9 8
5 7 6 10 8 7 10 9 9 10 9 11 11 9 11 11 11 6 10 16 20 22 23 25 24 23 21 21 21 20 18 16 16 16 18 17 16 15 12 12 12 11 10 9
4 5 6 4 5 3 10 9 10 8 9 8 9 9 11 9 7 7 6 14 19 23 26 27 25 26 22 21 22 22 20 18 17 16 17 18 17 17 15 13 13 11 10 9
7 6 5 8 7 8 5 10 9 7 8 9 9 9 9 9 10 10 9 11 15 19 23 27 27 26 24 22 22 23 21 20 18 17 17 17 18 18 16 16 13 13 12 11
5 5 8 4 5 6 6 7 7 7 7 8 8 11 11 11 11 10 11 11 14 15 20 25 29 26 25 24 21 22 23 22 20 19 18 17 18 19 18 18 16 13 13 12
8 5 8 7 3 1 2 4 6 7 10 8 8 12 10 10 10 11 12 11 11 14 16 22 26 25 25 22 23 20 20 21 22 21 20 19 19 19 19 19 17 15 14 14
7 7 7 10 9 8 5 8 8 8 9 11 9 12 10 10 11 9 10 9 9 11 16 19 22 25 24 23 21 22 22 22 20 20 21 20 20 20 19 19 18 18 17 16
4 5 7 10 12 11 10 10 11 10 12 13 15 13 11 11 9 8 8 8 9 11 15 17 20 24 24 25 24 21 22 21 19 18 19 21 21 20 19 18 18 17 17 17
5 5 5 8 9 10 12 13 12 12 13 14 15 14 14 12 10 9 7 6 8 8 12 14 17 19 20 24 25 26 25 24 24 23 19 20 21 20 19 18 19 18 18 18
8 8 6 8 9 10 13 14 12 13 13 14 15 14 14 13 11 8 7 7 7 8 9 10 14 17 20 23 23 24 23 26 22 24 22 21 19 19 17 17 18 17 17 17
8 7 8 9 9 11 12 11 11 11 10 11 13 12 12 11 10 9 7 7 7 9 9 7 10 11 14 18 23 23 26 24 22 20 23 23 21 22 18 17 16 16 16 15
9 7 8 8 9 9 12 11 10 9 9 9 9 11 14 13 11 8 8 7 7 7 10 9 7 6 5 7 12 16 16 20 21 22 19 21 21 21 23 22 21 21 19 18
7 7 7 7 7 11 8 9 10 10 10 9 8 8 7 8 11 9 9 7 6 3 7 8 8 7 6 5 6 7 12 12 15 16 17 16 16 17 19 22 22 21 21 21
4 5 6 6 6 7 7 6 7 5 7 10 7 5 6 6 7 9 10 9 6 5 8 9 6 7 6 5 5 7 7 6 10 8 10 13 13 13 13 15 16 18 19 19
7 8 6 7 7 8 9 5 5 5 7 6 6 7 7 7 7 10 10 9 8 7 7 7 5 3 3 4 5 6 6 6 5 5 6 8 9 10 10 10 11 13 12 12
6 5 6 5 6 7 5 2 3 4 3 3 2 7 8 9 6 6 13 10 10 8 7 7 6 5 3 4 5 5 6 5 4 6 5 5 6 7 8 8 9 9 10 10
6 5 4 3 5 7 8 4 0 1 1 3 6 10 7 9 9 10 13 11 8 8 7 6 6 4 3 4 4 4 5 5 5 5 6 7 6 6 7 8 8 9 9 10
5 5 2 3 5 6 5 1 3 4 4 6 8 11 10 11 10 10 9 8 7 6 6 5 4 4 4 4 4 4 5 6 6 6 6 6 6 7 7 7 8 8 8 9
7 5 4 3 4 4 3 3 5 6 6 6 9 8 9 10 10 8 8 7 7 6 5 4 4 4 5 6 7 7 8 8 8 8 8 8 9 8 8 8 8 8 8 9
6 6 5 7 11 5 7 6 7 7 8 8 8 8 8 9 8 6 6 7 6 5 4 4 5 5 6 7 8 9 10 10 10 10 10 10 10 10 10 9 9 9 9 10
Wind_Direction
219 206 212 214 218 242 231 258 238 231 242 223 230 236 230 222 229 223 213 206 193 192 193 189 187 185 178 178 175 173 171 167 166 168 166 167 172 173 174 178 174 175 177 171
225 225 221 224 236 219 213 234 248 278 250 244 249 256 239 226 225 217 209 216 211 204 193 191 195 190 186 183 184 184 180 175 174 171 170 174 176 175 178 175 181 180 175 166
202 221 220 235 254 227 231 229 235 254 233 240 261 274 236 240 235 230 224 216 214 211 206 198 192 192 192 189 188 190 190 187 185 184 179 176 174 174 175 177 179 180 180 172
230 246 231 246 253 231 223 232 223 228 229 248 212 263 251 233 238 232 231 222 217 216 215 203 196 196 196 193 191 192 191 191 192 189 187 181 178 179 184 183 178 181 182 184
245 246 237 241 232 222 244 200 222 227 230 237 251 266 268 238 250 245 231 220 218 218 215 207 203 202 205 201 199 193 195 199 198 196 196 196 187 188 186 188 185 179 187 190
237 235 225 244 255 241 226 217 245 232 248 267 256 242 269 257 257 254 237 228 222 220 213 209 205 207 206 206 205 199 198 202 202 201 199 198 201 196 201 196 194 195 191 194
275 261 258 254 279 262 223 236 257 256 253 257 248 243 259 270 266 267 240 225 220 219 219 211 211 210 209 207 206 205 202 202 203 204 204 204 203 202 206 199 200 199 201 201
269 311 280 230 240 246 217 219 230 245 250 260 269 263 271 280 274 256 256 229 222 224 222 216 213 213 213 210 207 207 207 206 207 209 209 210 210 211 210 205 206 210 210 214
275 275 305 241 240 239 236 235 231 251 256 265 265 278 273 283 285 273 284 232 227 229 226 219 216 206 211 210 210 211 209 211 210 211 211 213 214 212 211 211 211 211 214 217
267 279 261 295 235 253 245 229 247 262 252 251 267 275 266 281 284 274 266 263 243 233 225 215 210 208 208 212 215 209 213 213 213 212 214 215 216 214 215 214 217 220 224 221
289 259 261 310 312 260 265 251 251 239 257 249 260 269 265 270 275 280 268 266 238 232 221 211 206 212 214 214 216 213 217 215 215 216 217 217 217 216 218 219 222 225 225 223
285 267 244 244 221 125 231 253 244 245 265 257 258 269 279 268 265 276 278 266 243 226 212 205 204 207 207 215 213 217 218 220 218 220 219 218 217 217 219 222 224 228 227 226
289 278 264 262 253 276 274 278 270 256 260 260 256 266 277 282 281 278 287 259 223 221 209 203 207 206 211 213 216 223 221 219 223 223 223 221 218 218 222 224 226 227 228 229
292 284 249 237 239 255 272 271 267 264 264 258 258 263 275 288 279 270 285 254 236 224 208 212 212 215 218 219 222 226 221 224 220 224 224 220 218 220 222 224 227 228 227 229
283 279 268 254 245 259 265 271 271 269 262 252 256 255 256 271 269 257 261 255 239 219 212 218 219 215 219 223 229 227 226 232 233 229 230 218 218 218 221 224 227 231 232 232
289 269 262 268 268 269 271 272 270 267 264 264 254 252 260 267 262 254 261 240 223 216 213 223 217 224 230 231 231 228 233 225 225 226 228 219 217 218 225 226 226 230 230 229
279 250 272 275 282 285 284 271 262 265 269 257 238 254 260 256 256 244 250 232 230 220 224 229 227 237 235 230 226 235 232 224 228 225 222 223 225 224 219 222 224 226 225 217
253 250 271 272 293 287 274 270 267 244 241 243 250 256 263 251 234 236 237 218 221 229 216 220 217 199 199 205 212 218 217 222 220 216 225 225 228 229 228 233 232 234 234 237
254 250 266 267 277 293 305 272 230 229 241 248 247 267 244 218 213 219 211 194 188 160 147 154 155 165 160 141 151 163 195 205 211 214 219 224 224 226 228 232 235 236 239 238
280 271 264 268 282 283 284 279 233 240 265 230 236 222 200 204 198 196 191 189 181 186 183 175 161 135 150 149 148 157 163 179 193 204 220 216 215 219 221 226 230 234 238 239
280 290 272 268 274 275 271 299 213 232 265 234 229 217 203 199 199 192 187 188 187 175 170 181 189 193 183 192 177 163 152 156 163 173 182 193 200 205 213 213 216 221 224 229
258 274 274 268 264 250 265 248 214 237 295 208 215 189 195 189 180 199 193 177 170 168 168 179 175 172 165 165 163 168 179 185 178 185 175 182 189 193 201 207 210 215 218 222
265 248 248 235 246 239 202 195 235 176 150 202 172 154 145 162 164 139 142 153 155 157 162 165 167 170 175 178 185 190 206 210 210 196 195 194 193 199 209 209 213 217 218 219
258 225 270 222 215 196 212 203 184 148 126 119 139 152 150 141 143 141 147 158 161 161 177 184 188 197 211 215 219 220 228 229 226 223 223 222 229 227 219 221 224 224 231 230
233 221 214 243 180 166 212 195 164 161 149 132 136 134 144 150 156 155 157 163 168 179 189 204 217 234 243 245 245 248 243 241 239 233 233 235 235 232 238 244 249 242 234 233
237 229 224 222 201 212 207 197 179 172 178 170 157 155 159 155 149 151 163 171 179 190 206 222 233 240 247 251 252 254 251 249 244 240 240 238 239 241 243 240 239 246 250 253